Terminal Aerodrome Forecast
Issued by NWS Quad Cities IA IL

Home | Current Version | Previous Version | Text Only | Print | Product List | Glossary On
Versions: 1 2 3 4 5 6 7 8 9 10 11 12 13 14 15 16 17 18 19 20
000
FTUS43 KDVN 312146 AAA
TAFDBQ
TAF AMD
KDBQ 312146Z 3122/0118 18008KT P6SM SCT040
     FM010100 16005KT 6SM HZ FEW050
     FM010700 18005KT 4SM BR SKC
     FM011400 20007KT 5SM BR SKC=

USA.gov is the U.S. government's official web portal to all federal, state and local government web resources and services.